Location: Newark
(51.3000°N, 4.9833°E)
Time: 07:14:55
(UTC+00:00)

N. Korean satellite - Visible Passes

Search period start: 16 October 2019 00:00
Search period end: 26 October 2019 00:00
Orbit: 455 x 508 km, 97.2° (Epoch: 15 October)

Date Brightness Start Highest point End Pass type
(mag) Time Alt. Az. Time Alt. Az. Time Alt. Az.
16 Oct 9.4 04:55:48 10° NE 04:58:41 23° E 05:01:35 10° SSE visible
17 Oct 10.2 04:31:30 10° ENE 04:33:10 13° E 04:34:51 10° ESE visible
18 Oct 10.2 17:54:00 10° WSW 17:55:39 13° W 17:57:19 10° WNW visible
19 Oct 8.5 05:12:58 10° NNE 05:16:18 35° E 05:19:38 10° SSE visible
19 Oct 9.3 17:27:18 10° SSW 17:30:07 23° W 17:32:59 10° NW visible
20 Oct 9.7 04:48:10 10° NE 04:50:50 19° E 04:53:32 10° SE visible
21 Oct 10.5 04:24:21 10° ENE 04:25:17 11° E 04:26:14 10° ESE visible
22 Oct 7.5 05:30:16 10° NNE 05:33:50 55° E 05:37:26 10° S visible
22 Oct 10.0 17:45:35 10° SW 17:47:44 16° W 17:49:55 10° NW visible
23 Oct 8.9 05:05:13 10° NNE 05:08:26 29° E 05:11:41 10° SSE visible
23 Oct 8.9 17:19:12 10° SSW 17:22:13 28° W 17:25:18 10° NNW visible
24 Oct 10.0 04:40:33 10° NE 04:42:57 17° E 04:45:22 10° SE visible
25 Oct 10.5 18:04:53 10° W 18:05:22 10° W 18:05:52 10° WNW visible
